Regional Weather Roundup
Issued by NWS

Home | Current Version | Previous Version | Graphics & Text | Print | Product List | Glossary On
Versions: 1 2 3 4 5 6 7 8 9 10 11 12 13 14 15 16 17 18 19 20 21 22 23 24 25 26 27 28 29 30 31 32 33 34 35 36 37 38 39 40 41 42 43 44 45 46 47 48 49 50
000
ASUS43 KOAX 261010
RWRNE

WEATHER ROUNDUP FOR NEBRASKA
NATIONAL WEATHER SERVICE OMAHA NE
400 AM CST MON JAN 26 2015

NOTES: SATELLITE DATA IS BEING USED TO AUGMENT CLOUD COVER ABOVE
       12000 FEET.
       "FAIR" INDICATES FEW OR NO CLOUDS BELOW 12,000 FEET WITH NO
       SIGNIFICANT WEATHER AND/OR OBSTRUCTIONS TO VISIBILITY.

  * THESE STATIONS DO NOT REPORT WEATHER SUCH AS RAIN...SNOW OR FOG.

NEZ001>004-019>022-054>056-261100-
NEBRASKA PANHANDLE

CITY           SKY/WX    TMP DP  RH WIND       PRES   REMARKS
SCOTTSBLUFF    CLOUDY    40  31  70 NW10      30.12S WCI  33
ALLIANCE       MOCLDY    40  31  70 NW15      30.06S WCI  32
CHADRON        MOCLDY    42  30  62 NW10      30.07R
KIMBALL        MOCLDY    44  29  55 NW17      30.12F
SIDNEY         PTCLDY    40  29  64 W10       30.11F WCI  33
$$

NEZ057>060-069>072-079>082-261100-
SOUTHWEST NEBRASKA

CITY           SKY/WX    TMP DP  RH WIND       PRES   REMARKS
NORTH PLATTE   CLEAR     31  28  89 W10       30.02S WCI  22
IMPERIAL       PTCLDY    40  30  67 NW13      30.06S WCI  32
LEXINGTON      CLEAR     35  31  83 NW12      29.99S WCI  27
MCCOOK         PTCLDY    39  31  72 W14       30.03F WCI  31
OGALLALA       PTCLDY    41  33  72 W14       30.06S
$$

NEZ005>010-023>029-035>040-094-261100-
NORTH CENTRAL NEBRASKA

CITY           SKY/WX    TMP DP  RH WIND       PRES   REMARKS
VALENTINE      CLEAR     34  31  88 W9        29.94F WCI  27
AINSWORTH      PTCLDY    38  32  78 W10       29.92F WCI  31
BROKEN BOW     CLEAR     44  33  65 NW16      29.95F
O`NEILL        PTCLDY    37  32  82 SW7       29.88F WCI  32
ORD            CLEAR     24  21  88 CALM      29.93F
THEDFORD       CLEAR     39  32  77 W12       29.98S WCI  32
$$

NEZ041-046>049-061>064-073>077-083>087-261100-
SOUTH CENTRAL NEBRASKA

CITY           SKY/WX    TMP DP  RH WIND       PRES   REMARKS
GRAND ISLAND   CLEAR     32  26  78 SW12      29.96F WCI  23
AURORA         PTCLDY    32  28  84 SW12      29.95F WCI  23
HASTINGS       CLEAR     31  24  75 SW6       29.96F WCI  25
HEBRON         CLEAR     32  27  80 SW6       29.99F WCI  27
HOLDREGE       CLEAR     35  26  71 W10       29.98F WCI  27
KEARNEY *      CLEAR     36  25  64 W10       29.97S WCI  28
YORK           PTCLDY    32  27  80 SW13      29.95F WCI  22
$$

NEZ011>018-030>034-042>045-261100-
NORTHEAST NEBRASKA

CITY           SKY/WX    TMP DP  RH WIND       PRES   REMARKS
NORFOLK        CLEAR     36  29  75 SW17      29.88F WCI  26
ALBION         CLEAR     34  28  80 SW6       29.92F WCI  29
BLAIR          CLEAR     31  29  91 S12       29.93F WCI  22
COLUMBUS *     CLEAR     34  25  69 SW12      29.95S WCI  25
FREMONT        CLEAR     34  31  89 SW8       29.93F WCI  27
TEKAMAH        CLEAR     28  25  88 SE7       29.95F WCI  21
WAYNE          CLEAR     32  29  88 S8        29.89F WCI  25
$$

NEZ050>053-065>068-078-088>093-261100-
SOUTHEAST NEBRASKA

CITY           SKY/WX    TMP DP  RH WIND       PRES   REMARKS
LINCOLN        CLEAR     31  27  85 S6        29.98F WCI  25
OMAHA EPPLEY   CLEAR     27  25  92 S9        29.96F WCI  18
BEATRICE       CLEAR     31  28  90 SW8       30.00F WCI  23
FALLS CITY     CLEAR     29  26  89 SW9       30.01F WCI  20
NEBRASKA CITY  CLEAR     28  27  97 SW8       29.99F WCI  19
PLATTSMOUTH    CLEAR     29  27  92 S9        29.97F WCI  21
$$

NEZ044-045-051>053-067-261100-
OMAHA AREA

CITY           SKY/WX    TMP DP  RH WIND       PRES   REMARKS
OMAHA EPPLEY   CLEAR     27  25  92 S9        29.96F WCI  18
BLAIR          CLEAR     31  29  91 S12       29.93F WCI  22
FREMONT        CLEAR     34  31  89 SW8       29.93F WCI  27
MILLARD        CLEAR     28  26  93 SE3       29.96F
OFFUTT AFB     CLEAR     22  21  95 S5        29.96F WCI  16
PLATTSMOUTH    CLEAR     29  27  92 S9        29.97F WCI  21
WAHOO          FAIR      29  26  88 S7        29.95F WCI  22
$$



USA.gov is the U.S. government's official web portal to all federal, state and local government web resources and services.